アトラス彗星

C/2020 P3 ( ATLAS )

English version
Home page
Updated on March 27, 2022

---------------------------------------------------------------------

・ プロフィール

発見日 2020年8月9日
発見光度 19.0等
発見者 Asteroid Terrestrial-Impact Last Alert System (ATLAS) search program

・ 写真集

・ 軌道要素

Epoch 2022 Jan. 21.0 TT = JDT 2459600.5
T 2021 Apr. 20.87735 TT                                 Rudenko
q   6.8123472            (2000.0)            P               Q
z  +0.0000375      Peri.   82.25124     -0.02855759     -0.95536019
 +/-0.0000011      Node    19.47515     +0.09749121     -0.29543963
e   0.9997443      Incl.   61.88573     +0.99482658     +0.00152789
From 460 observations 2020 Aug. 9-2022 Jan. 30, mean residual 0".5.

・ 光度変化

        m1 = -3.5 + 5 logΔ + 20.0 log r(t - 150)

---------------------------------------------------------------------

軌道要素はM.P.E.C. 2022-C56に掲載されたものです。
光度グラフはComet for Windowsで作成したものです。

---------------------------------------------------------------------

Copyright(C) Seiichi Yoshida (comet@aerith.net). All rights reserved.